Regional Weather Roundup
Issued by NWS

Home | Current Version | Previous Version | Graphics & Text | Print | Product List | Glossary On
Versions: 1 2 3 4 5 6 7 8 9 10 11 12 13 14 15 16 17 18 19 20 21 22 23 24 25 26 27 28 29 30 31 32 33 34 35 36 37 38 39 40 41 42 43 44 45 46 47 48 49 50
000
ASUS43 KBIS 201120
RWRND

NORTH DAKOTA REGIONAL WEATHER ROUNDUP
NATIONAL WEATHER SERVICE BISMARCK ND
500 AM CST SAT DEC 20 2014

NOTE: "FAIR" INDICATES FEW OR NO CLOUDS BELOW 12,000 FEET WITH NO
SIGNIFICANT WEATHER AND/OR OBSTRUCTIONS TO VISIBILITY.


NDZ001>003-009>011-017-201200-
NORTHWEST NORTH DAKOTA

CITY           SKY/WX    TMP DP  RH WIND       PRES   REMARKS
WILLISTON      MOCLDY    14  11  87 CALM      29.86F
MINOT          FOG       22  20  92 SE7       29.90F VSB 1/4 WCI  13
MINOT AFB      FRZ DRZL  21  21 100 S5        29.91S VSB 1/2 WCI  15
$$

NDZ018>021-031>035-040>046-201200-
SOUTHWEST NORTH DAKOTA

CITY           SKY/WX    TMP DP  RH WIND       PRES   REMARKS
BISMARCK       FOG       16  14  92 E6        29.94R VSB 1   WCI   7
DICKINSON      CLOUDY    29  24  82 S7        29.83F
GARRISON         N/A     20  17  88 E6        29.90S WCI  12
HETTINGER ARPT CLOUDY    26  23  88 CALM      29.87F
$$

NDZ004>008-012>016-024-026-027-054-201200-
NORTHEAST NORTH DAKOTA

CITY           SKY/WX    TMP DP  RH WIND       PRES   REMARKS
GRAND FORKS    CLOUDY    28  27  96 S7        30.00S FOG
GRND FRKS AFB  CLOUDY    28  28 100 S5        29.99F
DEVILS LAKE    CLOUDY    23  16  74 S3        29.93F
$$

NDZ022-023-025-028>030-036>039-047>053-201200-
SOUTHEAST NORTH DAKOTA

CITY           SKY/WX    TMP DP  RH WIND       PRES   REMARKS
FARGO          CLOUDY    31  28  89 S8        30.02F
JAMESTOWN      FOG       22  19  89 SE5       29.96F VSB 1/4 WCI  16
$$



USA.gov is the U.S. government's official web portal to all federal, state and local government web resources and services.